Regional Weather Roundup
Issued by NWS Wakefield, VA

Home | Current Version | Previous Version | Graphics & Text | Print | Product List | Glossary On
Versions: 1 2 3 4 5 6 7 8 9 10 11 12 13 14 15 16 17 18 19 20 21 22 23 24 25 26 27 28 29 30 31 32 33 34 35 36 37 38 39 40 41 42 43 44 45 46 47 48 49 50
670
ASUS41 KAKQ 240915
RWRAKQ

REGIONAL WEATHER ROUNDUP
NATIONAL WEATHER SERVICE WAKEFIELD VA
500 AM EDT SUN JUL 24 2016

Note: "fair" indicates few or no clouds below 12,000 feet with no
significant weather and/or obstructions to visibility. * = Denotes
station may not report precipitation (e.g., rain,snow,etc.),
thunder or fog.

VAZ042-051-052>054-056-241000-
NORTHERN VIRGINIA

CITY           SKY/WX    TMP DP  RH WIND       PRES   REMARKS
WASH NATIONAL  FAIR      81  71  71 N6        29.95S
DULLES         FAIR      74  70  87 W3        29.96S
FORT BELVOIR   FAIR      73  72  94 CALM      29.94S
QUANTICO       FAIR      80  72  76 CALM      29.95R
FREDERICKSBRG* FAIR      75  75 100 CALM      29.94S
STAFFORD*      FAIR      75  71  87 CALM      29.99S
WARRENTON      FAIR      73  68  85 CALM      29.96S
CULPEPER*      FAIR      73  73 100 N5        29.97S
MANASSAS*      FAIR      72  72 100 CALM      29.96S VSB 1
LEESBURG*      FAIR      75  73  94 CALM      29.98S
WINCHESTER     FAIR      75  70  83 CALM      30.00R
FRONT ROYAL*   FAIR      73  70  88 CALM      29.99S
LURAY*         FAIR     N/A N/A N/A CALM      30.01S
$$

VAZ048-049-060>072-079>083-241000-
CENTRAL AND SOUTH CENTRAL VIRGINIA

CITY           SKY/WX    TMP DP  RH WIND       PRES   REMARKS
RICHMOND       FAIR      76  74  93 S6        29.95R
CHESTERFIELD*  FAIR      75  63  64 CALM      29.97R
PETERSBURG*    FAIR     N/A N/A N/A CALM      29.97R HAZE
HANOVER        FAIR      76  72  87 CALM      29.96S
TAPPAHANNOCK*  FAIR      77  77 100 CALM      29.95R
QUINTON*       FAIR      78  76  95 CALM      29.94S
CHARLOTTSVILLE FAIR      75  71  87 CALM      29.97S
GORDONSVILLE*  FAIR      72  72 100 CALM      29.96S
ORANGE*          N/A     73  73 100 CALM      29.98S FOG
LOUISA*          N/A     75  75 100 CALM      29.95S FOG
BUMPASS*       FAIR      73  73  99 CALM      29.96S
FARMVILLE*     FAIR     N/A N/A N/A SW3       29.96S
CREWE*         FAIR      73  73 100 CALM      29.97S
FORT PICKETT*  FAIR      75  74  98 SW5       29.98R
CHASE CITY*    FAIR      74  72  95 CALM      29.99S
CLARKSVILLE*   FAIR      73  73 100 SW3       29.98S
SOUTH HILL*    FAIR      73  73 100 SW3       30.04S
LAWRENCEVILLE* FAIR      75  74  99 MISG      29.98S
EMPORIA*       FAIR      73  73 100 CALM      29.98F
$$

VAZ088>098-241000-
SOUTHEAST VIRGINIA

CITY           SKY/WX    TMP DP  RH WIND       PRES   REMARKS
NORFOLK        FAIR      80  73  79 SW10      29.95S
VIRGINIA BEACH MOCLDY    82  73  74 SW7       29.95S
NORFOLK NAVAL  FAIR      80  74  81 SW3       29.97R
WEST POINT*    FAIR      79  76  88 SW5       29.95S
SALUDA*        FAIR      80  77  91 CALM      29.93S
NEWPORT NEWS   FAIR      80  76  87 SW7       29.95S
LANGLEY AFB    FAIR      80  76  87 S9        29.95S
FORT EUSTIS    FAIR      79  76  91 VRB3      29.94R
WILLIAMSBURG*  FAIR      81  77  89 CALM      29.96S
HR EXEC AP*    FAIR      75  72  88 SW3       29.98S
FRANKLIN*      FAIR      76  73  91 CALM      29.97S
US460-WAKEFLD  FAIR      77  74  90 SW6       29.96S FOG
$$

VAZ020-022-025-037-045-241000-
WEST CENTRAL AND SOUTHWEST VIRGINIA

CITY           SKY/WX    TMP DP  RH WIND       PRES   REMARKS
STAUNTON*      FAIR      69  68  98 CALM      30.05R
WAYNESBORO*    FAIR      70  68  93 CALM      30.04S
HOT SPRINGS VA FAIR      72  64  78 NW6       30.17S
LYNCHBURG      FAIR      70  69  97 CALM      30.01S
DANVILLE       FAIR      72  71  97 SW3       30.00R
SOUTH BOSTON*  FAIR      72  71  95 CALM      29.99R
MARTINSVILLE   CLOUDY    68  67  97 CALM      30.04S FOG
ROANOKE        FAIR      72  68  87 NW3       30.05R
BLACKSBURG     FAIR      68  68  98 CALM      30.13S
DUBLIN*        FAIR      67  66  96 CALM      30.11S
MARION*        FAIR      68  66  94 W5        30.15S
HILLSVILLE*    FAIR      68  67  96 SW5       30.12S
RICHLANDS*     FAIR      70  69  99 CALM      30.12F
WISE*          FAIR      70  66  88 CALM      30.14S
ABINGDON*      FAIR      70  69  96 CALM      30.10S
$$

MDZ021>025-VAZ099-100-241000-
SOUTHERN MARYLAND AND THE DELMARVA PENINSULA

CITY           SKY/WX    TMP DP  RH WIND       PRES   REMARKS
PATUXENT RIVER CLEAR     81  73  76 W6        29.93S
BAY BRIDGE APT PTCLDY    77  72  83 CALM      29.94S
LEONARDTOWN    PTCLDY    77  72  83 W3        29.95S
DOVER          CLEAR     71  71 100 N2        29.93S FOG
GEORGETOWN     CLEAR     77  73  87 N6        29.94S
EASTON         CLEAR     78  77  97 NE6       29.98R
CAMBRIDGE      CLEAR     81  72  74 N8        29.92S
SALISBURY      CLEAR     79  77  94 NW3       29.92S
OCEAN CITY     CLEAR     75  73  93 CALM      29.92S
WALLOPS ISLAND FAIR      84  77  79 W7        29.93R
ACCOMACK*      FAIR      81  75  83 CALM      29.94R
$$

NCZ012>017-030>032-241000-
NORTH CENTRAL AND EASTERN NORTH CAROLINA

CITY           SKY/WX    TMP DP  RH WIND       PRES   REMARKS
ROANOKE RAPIDS FAIR      73  72  94 SW6       29.98S
RALEIGH        PTCLDY    75  72  90 CALM      30.00S
ELIZABETH CITY CLEAR     78  74  87 S9        29.98S
AHOSKIE*       CLEAR     74  73  96 CALM      29.98S
EDENTON*       CLEAR     79  75  87 SW10      30.00R
CURRITUCK*     CLEAR     78  76  92 SW5       29.99R
KILL DEVIL HLS CLEAR     79  74  85 SW6       29.98S
MANTEO           N/A     78  78  97 W10       29.99F
CAPE HATTERAS  CLEAR     80  77  90 W6        30.01F
TARBORO*       FAIR      75  73  92 CALM      30.00S
GOLDSBORO      CLEAR     74  74 100 CALM      29.99S
WASHINGTON     CLOUDY    75  71  88 SW7       30.01R
GREENVILLE     PTCLDY    73  72  94 S5        30.02R
NEW BERN       CLEAR     76  74  93 SW5       30.02F
WILMINGTON     CLEAR     79  76  90 CALM      30.01S
$$

VAZ048-241000-
ELSEWHERE

CITY           SKY/WX    TMP DP  RH WIND       PRES   REMARKS
HARRISBURG PA  PTCLDY    70  65  84 CALM      29.97R
BALTIMORE      PTCLDY    71  68  90 CALM      29.95S
ANNAPOLIS      PTCLDY    79  73  82 N5        29.94S
ANDREWS AFB    FAIR      75  69  82 N6        29.95S
PHILADELPHIA   PTCLDY    77  66  68 CALM      29.95R
GREENSBORO     PTCLDY    74  71  91 SW5       30.01S
ROCKY MOUNT    CLEAR     74  72  93 S5        29.99F
$$

VAZ100-241000-
MARINE

STATION/POSITION TIME  TEMP    WIND        PRES    WAVE   SWELL
                       AIR SEA DIR/SP/G            HT/PER HT/PER
                 (UTC) (F)     (DEG/KT/KT) (MB)    (FT/S) (FT/S)
BRANDYWINE LGT   0800   80      30/  8/  8   N/A
CAPE MAY NJ      0800   76 74   90/  2/  2 1013.1R
LEWES DE         0800   78 75  330/  5/  6 1013.4R
OCEAN-CITY-INLET 0800   76 67  260/  3/  3 1013.4F
WACHAPREAGUE VA  0800   83 86  260/  4/  6 1013.4F
THOMAS POINT MD  0900   82 82   30/ 11/ 12 1015.2F
GOOSES REEF MD   0800   85 84  340/ 12/ 14 1014.2S   1
COVE POINT MD    0800   82     290/  7/ 10 1013.8S
SOLOMONS ISLAND  0800   83 85  270/  4/  6   N/A
BISHOPS HEAD MD  0800   85 87  260/ 13/ 14 1013.4F
PINEY POINT MD   0800          320/  7/  8   N/A
POTOMAC MD       0800   84 84  300/  8/ 10 1012.4F   1/ 2
CAMBRIDGE MD     0800   85 86  320/  8/ 10 1012.4S
LEWISETTA VA     0800   83 86  260/  7/  8 1012.9F
RAPPAHANNOCK LGT 0800          230/ 12/ 13 1014.0F
STINGRAY PT      0800   83 84  190/ 12/ 14 1013.8F   1
YORK RVR RNG VA  0800   82     250/ 11/ 13 1013.4F
YORKTOWN VA      0800   81 84  220/ 11/ 13 1013.4F
JAMESTOWN VA     0800   81 87  220/  8/ 12   N/A
DOMINION TERM VA 0800   81     240/ 12/ 14 1014.1F
KIPTOPEKE VA     0800      78  230/  6/ 10   N/A
CHES BAY BRIDGE  0800   81 73  210/ 13/ 15 1013.8F
CAPE HENRY VA    0800   81     220/  9/ 13   N/A
WILLOUBY STN VA  0800   81     230/ 12/ 13   N/A
CAPE HENRY BUOY  0812      79                N/A     2/ 8
1ST LANDING BUOY 0800   80 78  220/ 10/ 12 1013.9F
CAPE CHARLES BUO 0826      71                N/A     2/10
OFFSHORE WE BUOY 0821      81                N/A     3/ 5
64NM E OF VA BCH 0850   81 81  230/ 16/ 17 1014.4F   3/ 8   2/ 8
DUCK PIER NC     0800   81 60  230/ 14/ 17 1014.8F
44100 DUCK FRF   0805      79                N/A     2/ 8
44056 DUCK FRF   0811      69                N/A     1/ 9
OREGON INLET NC  0800   82 85  220/ 15/ 18 1015.5F
HATTERAS NC      0800   81 83  240/  5/  8 1015.9S
DIAMOND SHLS NC  0850   83 85  240/ 14/ 17 1016.1F   3/ 4   2/ 9
CAPE LOOKOUT NC  0900   83     230/  7/  9 1015.8F
$$




USA.gov is the U.S. government's official web portal to all federal, state and local government web resources and services.